�N����,����,�~����,�C��,���x,�C��,����,���ϕ���,�ő�u�ԕ���,�ő厞����,���˗�,�I�_���x,�n�����x,�ő啗���N��,DTYPE
"20/03/21","00:10",0.0,6.9,80.8,1009.5,324.0,2.5,3.7,333.2,0.00,3.9,11.0,"00:01:20",1
"20/03/21","00:20",0.0,6.9,80.9,1009.7,313.6,2.5,3.5,325.5,0.00,3.9,11.0,"00:18:52",1
"20/03/21","00:30",0.0,6.8,80.8,1009.3,304.4,2.1,3.1,310.1,0.00,3.8,10.8,"00:23:36",1
"20/03/21","00:40",0.0,6.7,81.0,1009.5,316.1,2.6,3.4,321.8,0.00,3.7,10.8,"00:39:04",1
"20/03/21","00:50",0.0,6.8,81.0,1009.3,322.0,2.7,3.7,311.6,0.00,3.8,10.8,"00:43:28",1
"20/03/21","01:00",0.0,6.6,81.2,1009.5,330.8,1.7,3.1,328.5,0.00,3.7,10.8,"00:51:44",1
"20/03/21","01:10",0.0,6.2,81.5,1009.5,329.8,1.3,2.2,336.5,0.00,3.3,10.8,"01:05:02",1
"20/03/21","01:20",0.0,5.8,82.0,1010.0,314.3,1.3,1.4,314.1,0.00,3.0,10.7,"01:10:54",1
"20/03/21","01:30",0.0,5.8,82.7,1009.5,325.2,2.1,2.7,317.7,0.00,3.1,10.7,"01:24:36",1
"20/03/21","01:40",0.0,5.7,83.4,1010.0,319.0,1.6,2.2,301.7,0.00,3.2,10.6,"01:39:24",1
"20/03/21","01:50",0.0,5.6,83.9,1009.3,335.7,1.2,1.8,335.2,0.00,3.1,10.3,"01:49:46",1
"20/03/21","02:00",0.0,5.6,84.5,1009.7,329.5,1.8,2.2,334.7,0.00,3.2,10.4,"01:59:40",1
"20/03/21","02:10",0.0,5.5,84.9,1009.7,322.4,2.2,2.9,336.3,0.00,3.2,10.3,"02:02:22",1
"20/03/21","02:20",0.0,5.4,85.4,1009.7,325.4,2.1,2.7,322.9,0.00,3.2,10.2,"02:13:24",1
"20/03/21","02:30",0.0,5.3,85.9,1009.3,324.9,2.2,2.7,314.8,0.00,3.2,10.3,"02:27:04",1
"20/03/21","02:40",0.0,5.5,86.3,1009.7,308.8,2.6,3.9,314.6,0.00,3.4,10.3,"02:37:48",1
"20/03/21","02:50",0.0,5.5,86.4,1009.7,337.8,1.1,1.8,320.0,0.00,3.5,10.4,"02:40:10",1
"20/03/21","03:00",0.0,5.2,86.7,1009.5,285.2,1.7,1.9,295.4,0.00,3.2,9.9,"02:57:18",1
"20/03/21","03:10",0.0,4.9,86.9,1009.5,302.5,1.3,1.9,317.8,0.00,2.9,10.0,"03:04:02",1
"20/03/21","03:20",0.0,4.6,87.2,1009.7,319.9,1.7,2.2,336.1,0.00,2.7,10.0,"03:19:42",1
"20/03/21","03:30",0.0,4.2,87.5,1009.7,319.2,1.7,2.2,323.6,0.00,2.4,9.9,"03:20:56",1
"20/03/21","03:40",0.0,4.1,87.9,1009.3,297.0,1.6,1.8,311.0,0.00,2.3,9.9,"03:32:40",1
"20/03/21","03:50",0.0,4.2,88.3,1009.3,286.4,1.5,2.0,311.2,0.00,2.5,9.8,"03:48:42",1
"20/03/21","04:00",0.0,4.1,88.5,1008.8,301.6,1.3,2.0,310.7,0.00,2.4,9.7,"03:51:00",1
"20/03/21","04:10",0.0,4.0,88.8,1008.8,284.3,1.2,1.6,308.8,0.00,2.4,9.7,"04:03:12",1
"20/03/21","04:20",0.0,3.9,89.1,1008.8,305.7,1.6,2.1,322.9,0.00,2.3,9.8,"04:12:08",1
"20/03/21","04:30",0.0,3.8,89.3,1009.0,302.5,1.3,2.2,312.8,0.00,2.2,9.4,"04:27:40",1
"20/03/21","04:40",0.0,3.9,89.6,1009.0,290.6,1.6,2.0,311.4,0.00,2.4,9.7,"04:32:04",1
"20/03/21","04:50",0.0,3.9,89.9,1009.0,301.2,1.6,2.4,319.7,0.00,2.4,9.4,"04:46:08",1
"20/03/21","05:00",0.0,3.6,90.2,1009.0,334.5,1.7,2.8,338.3,0.00,2.2,9.3,"04:52:56",1
"20/03/21","05:10",0.0,3.3,90.4,1009.0,291.7,1.0,2.1,324.4,0.00,1.9,9.2,"05:09:58",1
"20/03/21","05:20",0.0,3.1,90.6,1009.3,297.2,1.1,1.8,325.6,0.00,1.8,9.3,"05:10:08",1
"20/03/21","05:30",0.0,2.9,90.9,1008.8,299.9,1.5,2.2,318.3,0.00,1.6,9.2,"05:27:44",1
"20/03/21","05:40",0.0,2.7,91.2,1008.8,313.1,1.8,2.2,320.4,0.00,1.5,9.2,"05:32:16",1
"20/03/21","05:50",0.0,3.0,91.5,1009.0,297.2,1.7,2.4,312.9,0.00,1.8,9.2,"05:46:56",1
"20/03/21","06:00",0.0,3.3,91.6,1009.3,314.4,2.1,3.1,322.5,0.00,2.1,9.2,"05:54:08",1
"20/03/21","06:10",0.0,3.3,91.8,1008.8,292.5,1.6,2.1,317.6,0.00,2.1,9.1,"06:00:08",1
"20/03/21","06:20",0.0,3.2,92.0,1009.7,291.9,1.6,1.9,298.0,0.00,2.1,9.2,"06:13:52",1
"20/03/21","06:30",0.0,3.1,92.1,1009.7,294.4,1.3,1.8,294.1,0.00,2.0,8.8,"06:22:56",1
"20/03/21","06:40",0.0,2.9,92.4,1009.7,303.9,1.7,2.0,314.5,0.00,1.8,9.0,"06:32:40",1
"20/03/21","06:50",0.0,2.9,92.6,1009.5,302.5,1.7,2.2,321.4,0.00,1.9,8.9,"06:49:20",1
"20/03/21","07:00",0.0,3.1,92.8,1009.7,321.6,1.7,2.4,328.6,0.00,2.1,8.7,"06:55:04",1
"20/03/21","07:10",0.0,3.0,92.9,1010.0,294.4,1.0,1.8,329.6,0.00,2.0,8.9,"07:00:24",1
"20/03/21","07:20",0.0,3.1,93.2,1010.0,268.3,0.7,1.1,267.2,0.00,2.1,8.9,"07:18:00",1
"20/03/21","07:30",0.0,3.8,93.3,1010.2,284.7,1.0,2.4,320.9,0.01,2.9,8.9,"07:20:02",1
"20/03/21","07:40",0.0,4.4,93.3,1010.4,321.0,1.7,2.6,323.4,0.02,3.5,9.0,"07:30:08",1
"20/03/21","07:50",0.0,5.0,93.4,1010.2,290.4,1.2,2.4,319.8,0.03,4.1,8.7,"07:41:28",1
"20/03/21","08:00",0.0,6.0,93.3,1010.7,281.6,0.7,1.1,293.3,0.05,5.0,9.0,"07:59:28",1
"20/03/21","08:10",0.0,6.7,93.1,1011.4,300.1,0.5,1.1,308.8,0.07,5.7,9.0,"08:07:36",1
"20/03/21","08:20",0.0,7.4,92.7,1011.6,260.7,0.5,0.9,274.0,0.09,6.3,9.0,"08:19:04",1
"20/03/21","08:30",0.0,8.1,92.2,1011.9,306.3,0.7,1.0,289.3,0.12,7.0,9.2,"08:20:32",1
"20/03/21","08:40",0.0,8.5,91.8,1011.9,278.3,0.6,1.4,312.0,0.15,7.3,9.3,"08:30:02",1
"20/03/21","08:50",0.0,8.8,90.2,1012.1,302.3,0.7,1.6,315.5,0.17,7.3,9.5,"08:40:08",1
"20/03/21","09:00",0.0,9.3,89.7,1012.6,266.2,0.8,1.6,261.3,0.20,7.7,9.5,"08:59:04",1
"20/03/21","09:10",0.0,9.8,88.3,1012.6,270.2,1.2,2.1,245.0,0.23,8.0,9.8,"09:05:52",1
"20/03/21","09:20",0.0,10.3,86.0,1012.8,263.3,0.8,2.0,251.4,0.25,8.1,10.1,"09:19:12",1
"20/03/21","09:30",0.0,10.7,82.0,1012.8,265.9,0.8,2.1,321.0,0.28,7.8,10.0,"09:21:12",1
"20/03/21","09:40",0.0,11.0,77.0,1012.6,215.7,1.0,1.9,149.6,0.31,7.2,10.2,"09:37:12",1
"20/03/21","09:50",0.0,11.6,72.6,1012.8,159.9,0.8,2.5,122.8,0.33,6.9,10.3,"09:49:20",1
"20/03/21","10:00",0.0,11.8,70.3,1012.3,157.1,1.2,2.8,161.2,0.35,6.6,10.5,"09:54:16",1
"20/03/21","10:10",0.0,12.4,69.1,1012.1,185.6,1.2,2.8,167.8,0.37,6.9,10.8,"10:01:12",1
"20/03/21","10:20",0.0,12.4,67.5,1011.9,129.4,1.3,2.2,191.1,0.39,6.6,10.9,"10:19:36",1
"20/03/21","10:30",0.0,12.9,67.1,1011.6,177.7,1.2,3.1,136.2,0.41,7.0,11.3,"10:21:12",1
"20/03/21","10:40",0.0,13.4,65.9,1012.3,168.1,1.2,2.8,135.0,0.43,7.2,11.6,"10:33:44",1
"20/03/21","10:50",0.0,13.7,64.5,1011.9,160.1,1.3,2.9,206.3,0.45,7.2,11.7,"10:45:12",1
"20/03/21","11:00",0.0,14.0,63.8,1011.6,151.3,2.1,3.9,135.2,0.46,7.3,12.1,"10:53:52",1
"20/03/21","11:10",0.0,14.7,61.9,1011.4,181.2,1.3,2.8,156.8,0.48,7.5,12.1,"11:00:56",1
"20/03/21","11:20",0.0,15.0,61.2,1011.4,128.6,1.3,3.6,122.8,0.50,7.6,12.6,"11:16:56",1
"20/03/21","11:30",0.0,15.5,59.6,1011.2,202.7,1.3,3.3,194.4,0.52,7.7,12.8,"11:23:04",1
"20/03/21","11:40",0.0,16.2,57.0,1011.2,215.2,1.0,2.0,208.9,0.53,7.7,13.1,"11:31:52",1
"20/03/21","11:50",0.0,16.4,54.5,1010.2,60.5,1.2,2.5,110.7,0.54,7.3,13.5,"11:48:16",1
"20/03/21","12:00",0.0,17.1,53.3,1010.2,141.4,1.1,2.5,107.8,0.55,7.6,13.6,"11:50:02",1
"20/03/21","12:10",0.0,17.3,51.3,1010.2,119.5,1.6,3.7,119.0,0.56,7.2,13.8,"12:09:52",1
"20/03/21","12:20",0.0,17.2,49.5,1010.0,136.6,1.6,3.6,154.5,0.57,6.6,14.2,"12:16:08",1
"20/03/21","12:30",0.0,17.8,47.0,1009.7,151.8,1.7,3.6,129.1,0.58,6.4,14.4,"12:25:28",1
"20/03/21","12:40",0.0,18.3,46.4,1009.7,116.9,1.7,3.9,120.1,0.58,6.7,14.6,"12:34:16",1
"20/03/21","12:50",0.0,18.6,42.5,1009.3,191.3,1.5,4.1,196.1,0.57,5.7,14.7,"12:45:44",1
"20/03/21","13:00",0.0,18.9,42.9,1009.3,135.6,2.0,4.2,118.3,0.58,6.1,15.0,"12:55:12",1
"20/03/21","13:10",0.0,19.1,39.8,1009.0,171.1,2.3,5.7,145.2,0.57,5.2,15.3,"13:05:12",1
"20/03/21","13:20",0.0,19.4,34.3,1008.8,204.7,2.5,5.6,201.7,0.57,3.3,15.5,"13:13:20",1
"20/03/21","13:30",0.0,19.8,33.6,1008.8,242.1,2.5,5.4,229.6,0.57,3.4,15.7,"13:20:16",1
"20/03/21","13:40",0.0,19.5,30.4,1008.6,237.1,2.8,5.8,226.6,0.57,1.7,15.8,"13:36:56",1
"20/03/21","13:50",0.0,19.8,29.7,1008.8,295.0,2.8,5.6,316.4,0.56,1.6,16.0,"13:45:52",1
"20/03/21","14:00",0.0,19.7,29.8,1008.1,310.2,3.5,6.6,336.8,0.55,1.6,16.2,"13:57:20",1
"20/03/21","14:10",0.0,19.9,29.5,1007.8,324.5,3.9,6.2,335.5,0.54,1.6,16.3,"14:00:16",1
"20/03/21","14:20",0.0,20.2,26.4,1007.8,280.8,2.5,4.2,326.1,0.52,0.3,16.4,"14:11:44",1
"20/03/21","14:30",0.0,20.3,27.5,1008.1,280.2,2.2,5.5,319.2,0.49,1.0,16.4,"14:28:16",1
"20/03/21","14:40",0.0,20.6,27.8,1007.6,265.1,1.8,4.3,330.5,0.47,1.4,16.7,"14:30:24",1
"20/03/21","14:50",0.0,20.1,28.6,1007.6,311.4,2.6,4.0,347.0,0.45,1.4,16.5,"14:42:48",1
"20/03/21","15:00",0.0,20.2,28.9,1007.4,312.8,2.5,4.7,325.9,0.43,1.6,16.6,"14:56:40",1
"20/03/21","15:10",0.0,20.5,27.9,1006.9,318.0,2.2,4.2,335.9,0.42,1.4,16.7,"15:04:40",1
"20/03/21","15:20",0.0,20.8,27.3,1007.4,276.7,1.5,4.0,257.4,0.42,1.3,16.8,"15:11:20",1
"20/03/21","15:30",0.0,21.3,26.5,1007.1,351.5,1.0,3.4,4.0,0.40,1.3,16.9,"15:29:20",1
"20/03/21","15:40",0.0,20.9,28.1,1006.9,311.7,2.1,4.1,326.1,0.37,1.8,17.0,"15:31:28",1
"20/03/21","15:50",0.0,20.8,27.4,1006.9,290.4,1.8,4.5,345.0,0.35,1.4,16.9,"15:43:12",1
"20/03/21","16:00",0.0,20.2,32.9,1007.1,187.0,2.0,5.4,100.3,0.33,3.4,16.8,"15:53:44",1
"20/03/21","16:10",0.0,19.0,33.8,1007.1,160.4,4.4,7.3,138.4,0.30,2.8,17.0,"16:04:24",1
"20/03/21","16:20",0.0,19.0,34.5,1007.1,191.1,3.6,6.0,198.9,0.28,3.0,16.8,"16:17:04",1
"20/03/21","16:30",0.0,19.0,35.1,1007.4,183.2,3.2,5.2,191.9,0.25,3.3,16.7,"16:24:24",1
"20/03/21","16:40",0.0,19.0,34.7,1006.9,188.8,3.4,6.0,187.6,0.23,3.1,16.6,"16:36:56",1
"20/03/21","16:50",0.0,18.9,34.9,1007.1,194.1,3.6,5.6,169.8,0.20,3.1,16.6,"16:46:08",1
"20/03/21","17:00",0.0,18.9,35.0,1007.4,198.4,2.6,4.7,221.3,0.17,3.2,16.4,"16:56:40",1
"20/03/21","17:10",0.0,18.8,35.0,1007.6,211.2,3.4,6.3,216.1,0.15,3.1,16.2,"17:01:44",1
"20/03/21","17:20",0.0,18.5,34.7,1007.6,216.9,3.4,6.0,223.5,0.12,2.7,16.1,"17:13:44",1
"20/03/21","17:30",0.0,18.5,34.7,1007.6,224.2,2.7,5.5,234.4,0.10,2.7,16.0,"17:28:16",1
"20/03/21","17:40",0.0,18.4,34.5,1008.1,236.9,2.3,4.4,204.8,0.07,2.5,16.0,"17:37:12",1
"20/03/21","17:50",0.0,18.1,33.9,1008.1,256.2,2.5,4.2,272.5,0.04,2.0,15.7,"17:42:40",1
"20/03/21","18:00",0.0,18.0,34.6,1008.1,253.6,2.6,5.6,236.0,0.04,2.2,15.7,"17:50:24",1
"20/03/21","18:10",0.0,17.7,34.8,1007.8,262.4,2.0,3.7,287.7,0.02,2.0,15.5,"18:04:40",1
"20/03/21","18:20",0.0,17.3,35.4,1007.8,268.4,2.0,4.4,278.3,0.01,1.9,15.6,"18:12:24",1
"20/03/21","18:30",0.0,17.1,35.9,1008.3,280.2,2.1,3.5,306.5,0.00,1.9,15.3,"18:25:52",1
"20/03/21","18:40",0.0,16.7,37.4,1008.6,286.1,1.8,3.3,306.1,0.00,2.1,15.2,"18:32:40",1
"20/03/21","18:50",0.0,16.5,38.1,1008.6,284.8,2.2,3.4,276.1,0.00,2.2,15.1,"18:40:48",1
"20/03/21","19:00",0.0,15.8,41.9,1008.6,316.8,2.1,3.2,331.8,0.00,2.9,14.9,"18:57:20",1
"20/03/21","19:10",0.0,15.1,44.0,1008.6,329.7,2.6,4.4,334.2,0.00,3.0,14.5,"19:03:20",1
"20/03/21","19:20",0.0,14.6,46.1,1008.1,336.3,2.8,4.1,328.8,0.00,3.2,14.8,"19:11:52",1
"20/03/21","19:30",0.0,14.1,47.8,1009.0,327.3,2.3,3.7,331.6,0.00,3.2,14.4,"19:21:52",1
"20/03/21","19:40",0.0,13.9,48.6,1008.8,324.6,2.3,3.9,340.7,0.00,3.3,14.4,"19:31:12",1
"20/03/21","19:50",0.0,13.4,49.8,1008.8,318.1,1.8,3.3,332.0,0.00,3.2,14.2,"19:42:18",1
"20/03/21","20:00",0.0,12.9,51.5,1008.8,314.4,1.1,1.7,316.5,0.00,3.2,14.1,"19:58:14",1
"20/03/21","20:10",0.0,12.3,54.1,1009.3,289.0,1.3,1.9,315.7,0.00,3.3,13.9,"20:06:24",1
"20/03/21","20:20",0.0,11.8,58.3,1009.0,316.6,2.0,2.8,311.8,0.00,3.9,13.8,"20:19:18",1
"20/03/21","20:30",0.0,11.5,60.0,1009.3,283.3,1.6,2.4,326.2,0.00,4.1,13.8,"20:29:50",1
"20/03/21","20:40",0.0,11.2,61.0,1009.5,301.2,1.6,2.1,321.6,0.00,4.0,13.5,"20:30:56",1
"20/03/21","20:50",0.0,10.9,62.6,1009.3,330.8,1.5,2.2,320.1,0.00,4.1,13.5,"20:40:08",1
"20/03/21","21:00",0.0,10.4,64.2,1009.3,293.1,1.3,2.0,305.7,0.00,4.0,13.2,"20:58:56",1
"20/03/21","21:10",0.0,10.2,65.6,1009.3,312.6,1.6,2.1,307.0,0.00,4.1,13.2,"21:05:20",1
"20/03/21","21:20",0.0,10.0,66.5,1009.3,288.1,1.5,1.9,299.7,0.00,4.1,13.1,"21:14:48",1
"20/03/21","21:30",0.0,10.0,66.9,1009.3,284.3,1.5,2.2,268.0,0.00,4.2,13.0,"21:23:52",1
"20/03/21","21:40",0.0,9.9,67.3,1009.5,296.6,1.5,2.5,268.6,0.00,4.2,12.8,"21:37:52",1
"20/03/21","21:50",0.0,9.9,67.7,1009.3,304.9,1.6,2.4,306.9,0.00,4.3,12.7,"21:46:00",1
"20/03/21","22:00",0.0,9.7,68.1,1009.0,322.4,1.6,2.7,317.3,0.00,4.1,12.6,"21:57:12",1
"20/03/21","22:10",0.0,9.1,69.1,1009.3,304.9,1.7,2.1,312.3,0.00,3.8,12.7,"22:01:36",1
"20/03/21","22:20",0.0,9.3,69.6,1009.0,278.8,1.3,1.8,302.2,0.00,4.1,12.3,"22:11:12",1
"20/03/21","22:30",0.0,9.2,69.8,1008.8,311.1,1.5,2.5,322.8,0.00,4.0,12.2,"22:25:04",1
"20/03/21","22:40",0.0,8.8,70.7,1009.0,335.3,1.7,2.6,323.0,0.00,3.8,12.2,"22:35:52",1
"20/03/21","22:50",0.0,8.2,71.9,1008.8,288.6,1.5,2.2,266.8,0.00,3.5,12.2,"22:44:16",1
"20/03/21","23:00",0.0,8.4,72.8,1008.8,303.3,2.0,3.1,311.5,0.00,3.8,12.2,"22:54:08",1
"20/03/21","23:10",0.0,8.6,73.2,1009.0,293.5,1.6,2.1,267.3,0.00,4.1,11.8,"23:01:20",1
"20/03/21","23:20",0.0,8.4,73.5,1008.8,321.7,1.7,2.1,321.5,0.00,4.0,11.9,"23:14:48",1
"20/03/21","23:30",0.0,7.8,74.2,1008.8,312.2,1.3,1.9,321.5,0.00,3.5,12.1,"23:22:00",1
"20/03/21","23:40",0.0,7.5,74.9,1009.3,283.4,0.6,1.9,320.0,0.00,3.4,11.7,"23:39:12",1
"20/03/21","23:50",0.0,7.3,75.4,1008.8,300.4,1.5,2.1,315.1,0.00,3.3,11.6,"23:47:28",1
"20/03/21","24:00",0.0,7.4,76.1,1008.8,309.0,1.6,2.0,319.4,0.00,3.5,11.6,"23:58:32",1
